This is the latest recevied weather packets stored in our database for station/object AC5CM. If no packets are shown the sender has not sent any weather packets the latest 1 day(s).
| Time | Temp. | Humidity | Pressure | Rain* | Wind** | Luminosity | Snow |
|---|---|---|---|---|---|---|---|
| 1778026133 | 26.67° C | 81% | 1007.8 hPa | 0 mm | 2.24 m/s, 124° | - | - |
| 1778025819 | 26.67° C | 81% | 1008 hPa | 0 mm | 2.24 m/s, 123° | - | - |
| 1778025516 | 26.67° C | 81% | 1007.9 hPa | 0 mm | 2.24 m/s, 120° | - | - |
| 1778025213 | 26.67° C | 81% | 1007.7 hPa | 0 mm | 0.89 m/s, 123° | - | - |
| 1778024910 | 26.67° C | 80% | 1007.8 hPa | 0 mm | 0.89 m/s, 114° | - | - |
| 1778024608 | 26.67° C | 80% | 1007.9 hPa | 0 mm | 0.89 m/s, 135° | - | - |
| 1778024316 | 26.67° C | 80% | 1007.9 hPa | 0 mm | 0.89 m/s, 90° | - | - |
| 1778024003 | 26.67° C | 80% | 1007.9 hPa | 0 mm | 0.89 m/s, 126° | - | - |
| 1778023700 | 27.22° C | 80% | 1007.6 hPa | 0 mm | 1.79 m/s, 81° | - | - |
| 1778023397 | 27.22° C | 79% | 1007.9 hPa | 0 mm | 2.24 m/s, 146° | - | - |
| 1778023094 | 27.22° C | 80% | 1007.9 hPa | 0 mm | 0.45 m/s, 123° | - | - |
| 1778022792 | 27.22° C | 79% | 1008.2 hPa | 0 mm | 1.34 m/s, 246° | - | - |
| 1778022490 | 27.22° C | 79% | 1008 hPa | 0 mm | 1.34 m/s, 179° | - | - |
| 1778022187 | 27.22° C | 79% | 1008.1 hPa | 0 mm | 1.79 m/s, 157° | - | - |
| 1778021883 | 27.22° C | 78% | 1007.9 hPa | 0 mm | 1.79 m/s, 134° | - | - |
| 1778021580 | 27.22° C | 78% | 1007.9 hPa | 0 mm | 2.24 m/s, 133° | - | - |
| 1778021275 | 27.78° C | 77% | 1008.1 hPa | 0 mm | 2.24 m/s, 148° | - | - |
| 1778020973 | 27.78° C | 77% | 1008 hPa | 0 mm | 1.79 m/s, 284° | - | - |
| 1778020671 | 27.78° C | 76% | 1008.1 hPa | 0 mm | 1.34 m/s, 130° | - | - |
| 1778020367 | 27.78° C | 76% | 1007.9 hPa | 0 mm | 0.89 m/s, 164° | - | - |
| 1778020063 | 28.33° C | 76% | 1008 hPa | 0 mm | 1.34 m/s, 310° | - | - |
| 1778019759 | 27.78° C | 76% | 1008.1 hPa | 0 mm | 2.68 m/s, 142° | - | - |
| 1778019456 | 28.33° C | 76% | 1008.1 hPa | 0 mm | 1.79 m/s, 146° | - | - |
| 1778019153 | 28.33° C | 75% | 1008.2 hPa | 0 mm | 2.68 m/s, 106° | - | - |
| 1778018850 | 28.33° C | 75% | 1008.3 hPa | 0 mm | 0 m/s | - | - |
* Rain latest hour (hover to see other rain measurements)
** Current wind speed in m/s (hover to see current wind gust speed)